This is the latest recevied weather packets stored in our database for station/object S51UL-6. If no packets are shown the sender has not sent any weather packets the latest 10 day(s).
| Time | Temp. | Humidity | Pressure | Rain* | Wind** | Luminosity | Snow |
|---|---|---|---|---|---|---|---|
| 1777787347 | 7.22° C | 85% | 1020 hPa | 0 mm | - | - | - |
| 1777787048 | 7.22° C | 86% | 1020.1 hPa | 0 mm | - | - | - |
| 1777786748 | 6.67° C | 86% | 1020 hPa | 0 mm | - | - | - |
| 1777786146 | 6.11° C | 86% | 1020.1 hPa | 0 mm | - | - | - |
| 1777785248 | 5° C | 85% | 1020 hPa | 0 mm | - | - | - |
| 1777784648 | 4.44° C | 84% | 1020.1 hPa | 0 mm | - | - | - |
| 1777784049 | 3.89° C | 84% | 1020.2 hPa | 0 mm | - | - | - |
| 1777783748 | 3.89° C | 84% | 1020.1 hPa | 0 mm | - | - | - |
| 1777783449 | 3.33° C | 84% | 1020.1 hPa | 0 mm | - | - | - |
| 1777782548 | 3.33° C | 84% | 1019.9 hPa | 0 mm | - | - | - |
| 1777782249 | 3.33° C | 84% | 1020 hPa | 0 mm | - | - | - |
| 1777781950 | 3.33° C | 83% | 1020 hPa | 0 mm | - | - | - |
| 1777781648 | 3.33° C | 83% | 1019.9 hPa | 0 mm | - | - | - |
| 1777781351 | 3.33° C | 83% | 1020 hPa | 0 mm | - | - | - |
| 1777780749 | 3.33° C | 83% | 1019.9 hPa | 0 mm | - | - | - |
| 1777780449 | 3.33° C | 83% | 1020 hPa | 0 mm | - | - | - |
| 1777779247 | 3.33° C | 83% | 1019.8 hPa | 0 mm | - | - | - |
| 1777778649 | 3.33° C | 83% | 1019.7 hPa | 0 mm | - | - | - |
| 1777778350 | 3.33° C | 82% | 1019.8 hPa | 0 mm | - | - | - |
| 1777778049 | 3.33° C | 82% | 1019.7 hPa | 0 mm | - | - | - |
| 1777777450 | 3.33° C | 82% | 1019.7 hPa | 0 mm | - | - | - |
| 1777777150 | 3.33° C | 82% | 1019.6 hPa | 0 mm | - | - | - |
| 1777776850 | 3.33° C | 82% | 1019.8 hPa | 0 mm | - | - | - |
| 1777776549 | 3.89° C | 82% | 1020 hPa | 0 mm | - | - | - |
| 1777776249 | 3.89° C | 82% | 1019.8 hPa | 0 mm | - | - | - |
* Rain latest hour (hover to see other rain measurements)
** Current wind speed in m/s (hover to see current wind gust speed)